Flag for Sweden Weather past 2 weeks in Stockholm, Sweden

Now
46 °F

Clear.


Feels Like: 44 °F
Forecast: 40 / 58 °F
Wind: 6 mph from Southeast

Location: Stockholm Bromma Airport

Current Time: Apr 21, 2015 at 10:12:56 PM

Latest Report: Apr 21, 2015 at 9:20 PM


Visibility: 10 mi

Pressure: 30.18 "Hg

Humidity: 57%

Dew point: 32 °F

Location of StockholmLocation

Historic Weather in Stockholm — Graph

°F

Stockholm temperature yesterday

Maximum temperature yesterday: 61 °F (at 6:20 PM)
Minimum temperature yesterday: 39 °F (at 11:50 PM)
Average temperature yesterday: 50 °F

Past Weeks' High & Low Weather Summary

 TemperatureHumidityPressure
High61 °F (Apr 19, 3:50 PM)100% (Apr 11, 2:50 AM)30.36 "Hg (Apr 11, 2:50 AM)
Low30 °F (Apr 18, 5:20 AM)25% (Apr 8, 2:20 PM)29.33 "Hg (Apr 15, 10:50 PM)
Average45 °F63%29.93 "Hg
* Reported Apr 6 8:20 PM — Apr 21 8:50 PM, Stockholm, Weather by CustomWeather, © 2015

Note: Actual official high and low records may vary slightly from our data, if they occured in-between our weather recording intervals... More about our weather records

Advertising

Stockholm weather history for previous 24 hours

 ConditionsComfort  
Time TempWeatherWind HumidityBarometerVisibility
8:50 PM
Tue, Apr 21
46 °FSunny.8 mph57%30.18 "Hg10 mi
8:20 PM50 °FSunny.8 mph50%30.18 "Hg10 mi
7:50 PM52 °FPassing clouds.7 mph50%30.15 "HgN/A
7:20 PM55 °FPassing clouds.6 mph41%30.15 "HgN/A
6:50 PM55 °FPassing clouds.7 mph41%30.15 "HgN/A
6:20 PM57 °FSunny.9 mph39%30.15 "Hg10 mi
5:50 PM57 °FPassing clouds.6 mph39%30.18 "HgN/A
5:20 PM57 °FPassing clouds.5 mph39%30.18 "HgN/A
4:50 PM57 °FPassing clouds.6 mph39%30.18 "HgN/A
4:20 PM57 °FPassing clouds.8 mph39%30.18 "HgN/A
3:50 PM57 °FPassing clouds.8 mph39%30.18 "HgN/A
3:20 PM57 °FSunny.6 mph41%30.18 "Hg10 mi
2:50 PM55 °FPassing clouds.6 mph41%30.18 "HgN/A
2:20 PM55 °FPassing clouds.5 mph41%30.21 "HgN/A
1:50 PM54 °FPassing clouds.12 mph47%30.21 "HgN/A
1:20 PM54 °FPassing clouds.6 mph44%30.21 "HgN/A
12:50 PM54 °FScattered clouds.6 mph44%30.21 "HgN/A
12:20 PM54 °FScattered clouds.7 mph44%30.24 "HgN/A
11:50 AM54 °FPassing clouds.8 mph47%30.24 "HgN/A
11:20 AM52 °FPassing clouds.12 mph47%30.24 "HgN/A
10:50 AM50 °FPassing clouds.10 mph50%30.24 "HgN/A
10:20 AM50 °FPassing clouds.10 mph54%30.21 "HgN/A
9:50 AM50 °FPassing clouds.9 mph54%30.21 "HgN/A
9:20 AM48 °FSunny.9 mph58%30.21 "Hg10 mi
8:50 AM46 °FPassing clouds.10 mph62%30.21 "HgN/A
8:20 AM45 °FPassing clouds.10 mph66%30.21 "HgN/A
7:50 AM45 °FPassing clouds.12 mph61%30.21 "HgN/A
7:20 AM43 °FPassing clouds.10 mph66%30.18 "HgN/A
6:50 AM41 °FPassing clouds.8 mph70%30.18 "HgN/A
6:20 AM41 °FSunny.8 mph70%30.18 "Hg10 mi
5:20 AM39 °FChilly.8 mph75%30.18 "HgN/A
4:50 AM41 °FQuite cool.8 mph70%30.18 "HgN/A
4:20 AM41 °FQuite cool.10 mph70%30.15 "HgN/A
3:50 AM43 °FQuite cool.12 mph66%30.15 "HgN/A
3:20 AM43 °FQuite cool.10 mph66%30.15 "HgN/A
2:50 AM43 °FQuite cool.10 mph66%30.15 "HgN/A
2:20 AM43 °FQuite cool.12 mph61%30.15 "HgN/A
1:50 AM43 °FQuite cool.12 mph66%30.15 "HgN/A
1:20 AM37 °FChilly.3 mph81%30.15 "HgN/A
12:50 AM39 °FChilly.3 mph81%30.12 "HgN/A
12:20 AM37 °FChilly.2 mph81%30.12 "HgN/A
11:50 PM
Mon, Apr 20
39 °FChilly.2 mph75%30.12 "HgN/A
11:20 PM41 °FQuite cool.3 mph70%30.12 "HgN/A
10:50 PM43 °FQuite cool.5 mph71%30.12 "HgN/A
10:20 PM43 °FQuite cool.5 mph71%30.12 "HgN/A
Weather by CustomWeather, © 2015

See weather overviewHow to use our weather pages